User: anonymous   Login
Location: Unspecified
(0.0000°N, 0.0000°E)
Time: 07:26:05
(UTC+00:00)
Language:

OBJECT AA - Orbit

View from above orbital plane
View from above orbital plane
View from above satellite
View from above satellite

Ground track
Ground track

The orbit data is extracted from the following two-line orbital elements,

1 43135U 18004AA  20224.13936994  .00001263  00000-0  53749-4 0  9997
2 43135  97.4447 295.4184 0008335 212.7067 147.3656 15.24839673143402
Epoch (UTC): 11 August 2020 03:20:41
Eccentricity: 0.0008335
inclination: 97.4447°
perigee height: 485 km
apogee height: 497 km
right ascension of ascending node: 295.4184°
argument of perigee: 212.7067°
revolutions per day: 15.24839673
mean anomaly at epoch: 147.3656°
orbit number at epoch: 14340

The dashed part of the orbit path shows where the satellite is in the earth's shadow,  

DLR